When you browse on this site, cookies collect data to enhance your experience and personalize the content and advertising you see.
Visit our Privacy Policy to learn more. By continuing to use the site, you agree to this use of cookies and data.
  • In Portugal
  • List of Countries
  • For 7 days
  • Water Temperature
  • Satellite Maps
  • Weather Map
  • Weather Widgets
  • user-avatar
    Login

    Hourly Weather Shumen

    Today, 21 March, Thursday

    Time Temperature Precipitation Wind Pressure Humidity
    00:00 +5°C° 0 mm 3 mps 740 mmHg 76%
    01:00 +5°C° 0 mm 3 mps 740 mmHg 77%
    02:00 +5°C° 0 mm 2 mps 740 mmHg 75%
    03:00 +4°C° 0 mm 2 mps 740 mmHg 75%
    04:00 +4°C° 0 mm 2 mps 740 mmHg 76%
    05:00 +4°C° 0 mm 2 mps 740 mmHg 77%
    06:00 +4°C° 0 mm 2 mps 741 mmHg 74%
    07:00 +5°C° 0 mm 2 mps 741 mmHg 70%
    08:00 +6°C° 0 mm 2 mps 741 mmHg 64%
    09:00 +7°C° 0 mm 2 mps 742 mmHg 59%
    10:00 +8°C° 0 mm 3 mps 742 mmHg 54%
    11:00 +9°C° 0 mm 3 mps 742 mmHg 49%
    12:00 +10°C° 0 mm 3 mps 742 mmHg 48%
    13:00 +11°C° 0 mm 3 mps 742 mmHg 46%
    14:00 +12°C° 0 mm 3 mps 742 mmHg 45%
    15:00 +11°C° 0 mm 3 mps 741 mmHg 46%
    16:00 +11°C° 0 mm 3 mps 741 mmHg 47%
    17:00 +11°C° 0 mm 3 mps 740 mmHg 48%
    18:00 +10°C° 0 mm 2 mps 740 mmHg 53%
    19:00 +9°C° 0 mm 2 mps 740 mmHg 57%
    20:00 +8°C° 0 mm 1 mps 740 mmHg 62%
    21:00 +8°C° 0 mm 1 mps 741 mmHg 64%
    22:00 +7°C° 0 mm 1 mps 741 mmHg 66%
    23:00 +6°C° 0 mm 0 mps 741 mmHg 67%

    Tomorrow, 22 March, Friday

    Time Temperature Precipitation Wind Pressure Humidity
    00:00 +7°C° 0 mm 1 mps 741 mmHg 69%
    01:00 +6°C° 0 mm 1 mps 741 mmHg 70%
    02:00 +6°C° 0 mm 1 mps 741 mmHg 71%
    03:00 +6°C° 0 mm 1 mps 740 mmHg 73%
    04:00 +5°C° 0 mm 1 mps 740 mmHg 75%
    05:00 +5°C° 0 mm 1 mps 740 mmHg 77%
    06:00 +5°C° 0 mm 2 mps 740 mmHg 75%
    07:00 +6°C° 0 mm 2 mps 740 mmHg 73%
    08:00 +7°C° 0 mm 2 mps 740 mmHg 71%
    09:00 +8°C° 0 mm 2 mps 740 mmHg 65%
    10:00 +10°C° 0 mm 2 mps 740 mmHg 58%
    11:00 +13°C° 0 mm 2 mps 740 mmHg 52%
    12:00 +13°C° 0 mm 2 mps 740 mmHg 49%
    13:00 +13°C° 0 mm 3 mps 739 mmHg 46%
    14:00 +14°C° 0 mm 3 mps 739 mmHg 43%
    15:00 +14°C° 0 mm 3 mps 739 mmHg 44%
    16:00 +14°C° 0 mm 3 mps 738 mmHg 45%
    17:00 +14°C° 0 mm 3 mps 738 mmHg 46%
    18:00 +12°C° 0 mm 3 mps 738 mmHg 51%
    19:00 +12°C° 0 mm 2 mps 738 mmHg 56%
    20:00 +10°C° 0 mm 1 mps 738 mmHg 61%
    21:00 +10°C° 0 mm 1 mps 738 mmHg 63%
    22:00 +10°C° 0 mm 1 mps 738 mmHg 64%
    23:00 +9°C° 0 mm 1 mps 737 mmHg 65%

    Day after tomorrow, 23 March, Saturday

    Time Temperature Precipitation Wind Pressure Humidity
    00:00 +9°C° 0 mm 1 mps 737 mmHg 65%
    01:00 +8°C° 0 mm 2 mps 737 mmHg 66%
    02:00 +8°C° 0 mm 2 mps 737 mmHg 66%
    03:00 +8°C° 0 mm 2 mps 737 mmHg 70%
    04:00 +7°C° 0 mm 2 mps 737 mmHg 74%
    05:00 +7°C° 0 mm 2 mps 737 mmHg 78%
    06:00 +7°C° 0 mm 2 mps 737 mmHg 74%
    07:00 +8°C° 0 mm 2 mps 737 mmHg 69%
    08:00 +8°C° 0 mm 2 mps 737 mmHg 65%
    09:00 +9°C° 0 mm 2 mps 737 mmHg 62%
    10:00 +9°C° 0 mm 2 mps 737 mmHg 58%
    11:00 +10°C° 0 mm 3 mps 737 mmHg 54%
    12:00 +10°C° 0 mm 3 mps 737 mmHg 54%
    13:00 +11°C° 0 mm 3 mps 736 mmHg 54%
    14:00 +11°C° 0 mm 3 mps 736 mmHg 54%
    15:00 +11°C° 0 mm 3 mps 736 mmHg 54%
    16:00 +10°C° 0 mm 3 mps 736 mmHg 55%
    17:00 +10°C° 0 mm 3 mps 735 mmHg 55%
    18:00 +9°C° 0 mm 2 mps 735 mmHg 58%
    19:00 +8°C° 0 mm 2 mps 736 mmHg 60%
    20:00 +7°C° 0 mm 1 mps 736 mmHg 63%
    21:00 +7°C° 0 mm 1 mps 736 mmHg 60%
    22:00 +7°C° 0 mm 1 mps 736 mmHg 58%
    23:00 +7°C° 0 mm 1 mps 736 mmHg 55%

    24 March, Sunday

    Time Temperature Precipitation Wind Pressure Humidity
    00:00 +6°C° 0 mm 1 mps 736 mmHg 52%
    01:00 +6°C° 0 mm 1 mps 736 mmHg 50%
    02:00 +5°C° 0 mm 1 mps 736 mmHg 47%
    03:00 +5°C° 0 mm 1 mps 735 mmHg 46%
    04:00 +4°C° 0 mm 1 mps 735 mmHg 46%
    05:00 +4°C° 0 mm 1 mps 735 mmHg 45%
    06:00 +5°C° 0 mm 1 mps 735 mmHg 44%
    07:00 +6°C° 0 mm 1 mps 736 mmHg 43%
    08:00 +6°C° 0 mm 1 mps 736 mmHg 42%
    09:00 +7°C° 0 mm 2 mps 736 mmHg 38%
    10:00 +8°C° 0 mm 2 mps 736 mmHg 34%
    11:00 +10°C° 0 mm 3 mps 736 mmHg 31%
    12:00 +11°C° 0 mm 3 mps 736 mmHg 30%
    13:00 +12°C° 0 mm 3 mps 736 mmHg 29%
    14:00 +13°C° 0 mm 3 mps 735 mmHg 28%
    15:00 +12°C° 0 mm 3 mps 735 mmHg 30%
    16:00 +12°C° 0 mm 3 mps 734 mmHg 31%
    17:00 +13°C° 0 mm 2 mps 734 mmHg 33%
    18:00 +12°C° 0 mm 2 mps 734 mmHg 37%
    19:00 +10°C° 0 mm 1 mps 734 mmHg 42%
    20:00 +7°C° 0 mm 0 mps 734 mmHg 47%
    21:00 +8°C° 0 mm 1 mps 734 mmHg 50%
    22:00 +7°C° 0 mm 1 mps 734 mmHg 53%
    23:00 +7°C° 0 mm 1 mps 734 mmHg 57%

    25 March, Monday

    Time Temperature Precipitation Wind Pressure Humidity
    00:00 +6°C° 0 mm 1 mps 733 mmHg 58%
    01:00 +6°C° 0 mm 1 mps 733 mmHg 60%
    02:00 +6°C° 0 mm 1 mps 733 mmHg 61%
    03:00 +6°C° 0 mm 1 mps 733 mmHg 61%
    04:00 +5°C° 0 mm 1 mps 732 mmHg 61%
    05:00 +5°C° 0 mm 1 mps 732 mmHg 62%
    06:00 +6°C° 0 mm 1 mps 732 mmHg 59%
    07:00 +8°C° 0 mm 1 mps 732 mmHg 56%
    08:00 +9°C° 0 mm 1 mps 732 mmHg 53%
    09:00 +11°C° 0 mm 1 mps 733 mmHg 48%
    10:00 +13°C° 0 mm 1 mps 733 mmHg 42%
    11:00 +15°C° 0 mm 2 mps 733 mmHg 36%
    12:00 +16°C° 0 mm 2 mps 732 mmHg 36%
    13:00 +17°C° 0 mm 3 mps 732 mmHg 35%
    14:00 +18°C° 0 mm 3 mps 731 mmHg 34%
    15:00 +17°C° 0 mm 4 mps 731 mmHg 41%
    16:00 +15°C° 0 mm 4 mps 731 mmHg 47%
    17:00 +14°C° 0 mm 5 mps 731 mmHg 53%
    18:00 +12°C° 0 mm 5 mps 731 mmHg 61%
    19:00 +8°C° 0 mm 5 mps 731 mmHg 69%
    20:00 +6°C° 0 mm 4 mps 731 mmHg 77%
    21:00 +5°C° 0 mm 4 mps 731 mmHg 80%
    22:00 +5°C° 0 mm 3 mps 731 mmHg 82%
    23:00 +6°C° 0 mm 2 mps 731 mmHg 85%

    26 March, Tuesday

    Time Temperature Precipitation Wind Pressure Humidity
    00:00 +6°C° 0.5 mm 2 mps 731 mmHg 86%
    01:00 +7°C° 0.5 mm 1 mps 731 mmHg 86%
    02:00 +7°C° 0.5 mm 1 mps 731 mmHg 87%
    03:00 +7°C° 0.2 mm 1 mps 730 mmHg 87%
    04:00 +7°C° 0.2 mm 1 mps 730 mmHg 87%
    05:00 +7°C° 0.2 mm 1 mps 730 mmHg 87%
    06:00 +6°C° 0.1 mm 2 mps 730 mmHg 86%
    07:00 +6°C° 0.1 mm 2 mps 730 mmHg 84%
    08:00 +5°C° 0.1 mm 3 mps 730 mmHg 83%
    09:00 +6°C° 0.2 mm 4 mps 730 mmHg 81%
    10:00 +6°C° 0.2 mm 4 mps 730 mmHg 78%
    11:00 +7°C° 0.2 mm 5 mps 730 mmHg 76%
    12:00 +8°C° 0.3 mm 5 mps 729 mmHg 68%
    13:00 +9°C° 0.3 mm 5 mps 729 mmHg 61%
    14:00 +10°C° 0.3 mm 4 mps 729 mmHg 53%
    15:00 +9°C° 0.3 mm 5 mps 729 mmHg 52%
    16:00 +9°C° 0.3 mm 5 mps 728 mmHg 51%
    17:00 +9°C° 0.3 mm 5 mps 728 mmHg 49%
    18:00 +8°C° 0.1 mm 5 mps 729 mmHg 52%
    19:00 +6°C° 0.1 mm 4 mps 729 mmHg 56%
    20:00 +5°C° 0.1 mm 4 mps 729 mmHg 59%
    21:00 +5°C° 0 mm 4 mps 729 mmHg 68%
    22:00 +4°C° 0 mm 4 mps 730 mmHg 77%
    23:00 +3°C° 0 mm 4 mps 730 mmHg 87%
    Show more